Zurück zum Katalog

OPS 0856 DEB

AktivPO
NORAD 26671·DEBRIS·🇺🇸 United States

Gestartet Aug 19, 1966 von Vandenberg Space Force Base

Loading…

Nächste Überflüge (nächste 24 Stunden)

TLE

AlterndSource: Space-Track

Epoche: Sep 7, 2026, 07:34 UTC

1 26671U 66077Z   26250.31532625  .00000181  00000-0  55190-1 0  9991
2 26671  89.5863 212.7112 0677383 184.2585 175.2306  8.82619388 46946

Verfolge OPS 0856 DEB in Echtzeit mit AllMySat

Download on the App Store